Auxiliary Airfield


Codes: MYGM/GBI
Name: Auxiliary Airfield
City: Grand Bahama
Country: Bahamas
Elevation: 8 ft.

Photos at Auxiliary Airfield


   Photos courtesy of SpottingLog. You can add your own sightings and photos by signing up for a free trial today.



No photos found.

Weather at Auxiliary Airfield


Time (UTC)DescriptionTempratureWindCloud coverageVisibilityPressureHumidity
25-Jun-2024 15:00Light Rain28°C7 mph, S15%10000m1015hPa72%
25-Jun-2024 18:00Few Clouds28°C9 mph, SW13%10000m1016hPa70%
25-Jun-2024 21:00Few Clouds29°C9 mph, SW18%10000m1014hPa67%
26-Jun-2024 00:00Few Clouds29°C4 mph, S13%10000m1015hPa69%
26-Jun-2024 03:00Clear Sky28°C4 mph, S3%10000m1016hPa72%
26-Jun-2024 06:00Light Rain28°C9 mph, S32%10000m1014hPa75%
26-Jun-2024 09:00Overcast Clouds28°C9 mph, S99%10000m1013hPa74%
26-Jun-2024 12:00Light Rain28°C11 mph, SW100%10000m1014hPa76%
26-Jun-2024 15:00Moderate Rain29°C11 mph, SW96%10000m1015hPa72%
26-Jun-2024 18:00Light Rain29°C11 mph, W85%10000m1014hPa70%
26-Jun-2024 21:00Light Rain29°C9 mph, W30%10000m1013hPa69%
27-Jun-2024 00:00Light Rain29°C11 mph, SW18%10000m1013hPa73%
27-Jun-2024 03:00Light Rain28°C9 mph, SW96%10000m1013hPa75%
27-Jun-2024 06:00Light Rain28°C7 mph, SW81%10000m1012hPa77%
27-Jun-2024 09:00Light Rain28°C13 mph, W94%10000m1012hPa77%
27-Jun-2024 12:00Light Rain28°C13 mph, SW92%10000m1013hPa76%
27-Jun-2024 15:00Overcast Clouds29°C16 mph, W100%10000m1014hPa74%
27-Jun-2024 18:00Broken Clouds29°C13 mph, W83%10000m1014hPa73%
27-Jun-2024 21:00Few Clouds29°C9 mph, W20%10000m1013hPa71%
28-Jun-2024 00:00Few Clouds29°C7 mph, SW13%10000m1014hPa72%
28-Jun-2024 03:00Broken Clouds28°C11 mph, S56%10000m1014hPa76%
28-Jun-2024 06:00Light Rain29°C11 mph, SW64%10000m1013hPa74%
28-Jun-2024 09:00Light Rain28°C11 mph, SW85%10000m1013hPa77%
28-Jun-2024 12:00Light Rain28°C9 mph, NW73%10000m1015hPa76%
28-Jun-2024 15:00Light Rain29°C7 mph, NW86%10000m1016hPa72%
28-Jun-2024 18:00Overcast Clouds29°C7 mph, NW92%10000m1016hPa70%
28-Jun-2024 21:00Light Rain29°C4 mph, W100%10000m1015hPa69%
29-Jun-2024 00:00Overcast Clouds29°C7 mph, E100%10000m1015hPa72%
29-Jun-2024 03:00Light Rain29°C7 mph, S93%10000m1017hPa75%
29-Jun-2024 06:00Overcast Clouds28°C7 mph, S94%10000m1017hPa76%
29-Jun-2024 09:00Overcast Clouds28°C4 mph, SE100%10000m1016hPa75%
29-Jun-2024 12:00Light Rain28°C7 mph, SE100%10000m1018hPa74%
29-Jun-2024 15:00Light Rain29°C4 mph, SE99%10000m1019hPa69%
29-Jun-2024 18:00Light Rain29°C4 mph, SE100%10000m1019hPa67%
29-Jun-2024 21:00Light Rain29°C7 mph, SE100%10000m1018hPa69%
30-Jun-2024 00:00Light Rain29°C11 mph, SE83%10000m1018hPa75%
30-Jun-2024 03:00Few Clouds28°C9 mph, SE12%10000m1019hPa77%
30-Jun-2024 06:00Few Clouds28°C9 mph, SE11%10000m1019hPa77%
30-Jun-2024 09:00Few Clouds28°C9 mph, SE12%10000m1018hPa77%
30-Jun-2024 12:00Clear Sky28°C7 mph, SE6%10000m1019hPa77%